User: anonymous   Login
Location: Lecco
(45.8566°N, 9.3977°E)
Time: 19:46:39
(UTC+02:00)
Language:

Explorer 11/Cluster Stage 4 - Orbit

View from above orbital plane
View from above orbital plane
View from above satellite
View from above satellite

Ground track
Ground track

The orbit data is extracted from the following two-line orbital elements,

1   107U 61013A   21163.10996106  .00000738  00000-0  79376-4 0  9998
2   107  28.7881 309.8572 0545536 149.4017 213.9575 14.09215763 16559
Epoch (UTC): 12 June 2021 02:38:20
Eccentricity: 0.0545536
inclination: 28.7881°
perigee height: 467 km
apogee height: 1257 km
right ascension of ascending node: 309.8572°
argument of perigee: 149.4017°
revolutions per day: 14.09215763
mean anomaly at epoch: 213.9575°
orbit number at epoch: 1655

The dashed part of the orbit path shows where the satellite is in the earth's shadow,  

DLR